• In Deutschland
  • Länderverzeichnis
  • Für 7 Tage
  • Wassertemperatur
  • Satellitenkarten
  • Wetterkarte
  • Widgets
  • user-avatar
    Anmelden

    Stündliche Wetter Kyrdshali

    Heute, 16 Januar, Dienstag

    Zeit Temperatur Niederschläge Wind Luftdruck Luftfeuchtigkeit
    00:00 +1°C° 0 mm 1 m/S 731 mmHg 92%
    01:00 +2°C° 0 mm 1 m/S 730 mmHg 92%
    02:00 +1°C° 0 mm 1 m/S 730 mmHg 93%
    03:00 +1°C° 0 mm 1 m/S 730 mmHg 94%
    04:00 +2°C° 0 mm 1 m/S 729 mmHg 94%
    05:00 +2°C° 0 mm 1 m/S 729 mmHg 94%
    06:00 +2°C° 0 mm 1 m/S 728 mmHg 94%
    07:00 +2°C° 0 mm 1 m/S 728 mmHg 94%
    08:00 +2°C° 0 mm 1 m/S 727 mmHg 94%
    09:00 +4°C° 0 mm 1 m/S 727 mmHg 91%
    10:00 +5°C° 0 mm 1 m/S 727 mmHg 88%
    11:00 +6°C° 0 mm 1 m/S 727 mmHg 85%
    12:00 +7°C° 0 mm 1 m/S 726 mmHg 83%
    13:00 +7°C° 0 mm 1 m/S 726 mmHg 80%
    14:00 +7°C° 0 mm 2 m/S 725 mmHg 77%
    15:00 +6°C° 0 mm 2 m/S 725 mmHg 81%
    16:00 +6°C° 0 mm 2 m/S 725 mmHg 85%
    17:00 +5°C° 0 mm 2 m/S 724 mmHg 89%
    18:00 +4°C° 0 mm 2 m/S 724 mmHg 89%
    19:00 +4°C° 0 mm 2 m/S 723 mmHg 90%
    20:00 +3°C° 0 mm 2 m/S 723 mmHg 91%
    21:00 +3°C° 0 mm 2 m/S 723 mmHg 90%
    22:00 +3°C° 0 mm 2 m/S 723 mmHg 89%
    23:00 +3°C° 0 mm 2 m/S 722 mmHg 89%

    Morgen, 17 Januar, Mittwoch

    Zeit Temperatur Niederschläge Wind Luftdruck Luftfeuchtigkeit
    00:00 +3°C° 0 mm 2 m/S 722 mmHg 88%
    01:00 +3°C° 0 mm 2 m/S 722 mmHg 87%
    02:00 +3°C° 0 mm 2 m/S 722 mmHg 87%
    03:00 +3°C° 0 mm 2 m/S 721 mmHg 86%
    04:00 +3°C° 0 mm 2 m/S 721 mmHg 85%
    05:00 +3°C° 0 mm 2 m/S 721 mmHg 84%
    06:00 +3°C° 0 mm 2 m/S 720 mmHg 84%
    07:00 +3°C° 0 mm 2 m/S 720 mmHg 84%
    08:00 +3°C° 0 mm 2 m/S 720 mmHg 84%
    09:00 +4°C° 0 mm 3 m/S 719 mmHg 79%
    10:00 +6°C° 0 mm 4 m/S 719 mmHg 74%
    11:00 +8°C° 0 mm 4 m/S 719 mmHg 69%
    12:00 +8°C° 0 mm 5 m/S 718 mmHg 69%
    13:00 +9°C° 0 mm 6 m/S 717 mmHg 68%
    14:00 +10°C° 0 mm 7 m/S 716 mmHg 68%
    15:00 +9°C° 0 mm 7 m/S 715 mmHg 72%
    16:00 +9°C° 0 mm 6 m/S 714 mmHg 76%
    17:00 +8°C° 0 mm 6 m/S 713 mmHg 80%
    18:00 +8°C° 0,2 mm 7 m/S 712 mmHg 81%
    19:00 +8°C° 0,2 mm 7 m/S 712 mmHg 83%
    20:00 +7°C° 0,2 mm 8 m/S 711 mmHg 84%
    21:00 +8°C° 0,5 mm 7 m/S 711 mmHg 82%
    22:00 +8°C° 0,5 mm 6 m/S 711 mmHg 81%
    23:00 +7°C° 0,5 mm 6 m/S 711 mmHg 79%

    übermorgen, 18 Januar, Donnerstag

    Zeit Temperatur Niederschläge Wind Luftdruck Luftfeuchtigkeit
    00:00 +5°C° 0,1 mm 6 m/S 712 mmHg 76%
    01:00 +4°C° 0,1 mm 7 m/S 713 mmHg 72%
    02:00 +2°C° 0,1 mm 8 m/S 713 mmHg 69%
    03:00 +1°C° 0 mm 9 m/S 714 mmHg 65%
    04:00 -2°C° 0 mm 10 m/S 715 mmHg 60%
    05:00 -3°C° 0 mm 11 m/S 716 mmHg 56%
    06:00 -3°C° 0 mm 11 m/S 717 mmHg 53%
    07:00 -4°C° 0 mm 11 m/S 718 mmHg 51%
    08:00 -4°C° 0 mm 11 m/S 719 mmHg 48%
    09:00 -3°C° 0 mm 11 m/S 720 mmHg 47%
    10:00 -2°C° 0 mm 11 m/S 721 mmHg 46%
    11:00 -1°C° 0 mm 11 m/S 722 mmHg 45%
    12:00 +1°C° 0 mm 11 m/S 723 mmHg 43%
    13:00 +1°C° 0 mm 10 m/S 723 mmHg 41%
    14:00 +2°C° 0 mm 9 m/S 724 mmHg 39%
    15:00 +2°C° 0 mm 7 m/S 724 mmHg 42%
    16:00 +2°C° 0 mm 6 m/S 725 mmHg 46%
    17:00 +1°C° 0 mm 4 m/S 725 mmHg 50%
    18:00 0°C° 0 mm 4 m/S 726 mmHg 51%
    19:00 +1°C° 0 mm 3 m/S 726 mmHg 52%
    20:00 0°C° 0 mm 3 m/S 726 mmHg 52%
    21:00 0°C° 0 mm 3 m/S 726 mmHg 53%
    22:00 0°C° 0 mm 3 m/S 726 mmHg 54%
    23:00 0°C° 0 mm 3 m/S 726 mmHg 54%

    19 Januar, Freitag

    Zeit Temperatur Niederschläge Wind Luftdruck Luftfeuchtigkeit
    00:00 0°C° 0 mm 3 m/S 726 mmHg 54%
    01:00 0°C° 0 mm 3 m/S 725 mmHg 54%
    02:00 0°C° 0 mm 3 m/S 725 mmHg 54%
    03:00 0°C° 0 mm 3 m/S 725 mmHg 53%
    04:00 0°C° 0 mm 3 m/S 725 mmHg 52%
    05:00 0°C° 0 mm 3 m/S 725 mmHg 51%
    06:00 0°C° 0 mm 3 m/S 725 mmHg 52%
    07:00 0°C° 0 mm 3 m/S 725 mmHg 52%
    08:00 +1°C° 0 mm 3 m/S 725 mmHg 52%
    09:00 +3°C° 0 mm 3 m/S 725 mmHg 50%
    10:00 +5°C° 0 mm 3 m/S 725 mmHg 47%
    11:00 +7°C° 0 mm 4 m/S 725 mmHg 45%
    12:00 +7°C° 0 mm 4 m/S 725 mmHg 44%
    13:00 +8°C° 0 mm 4 m/S 724 mmHg 44%
    14:00 +10°C° 0 mm 4 m/S 724 mmHg 44%
    15:00 +7°C° 0 mm 4 m/S 724 mmHg 49%
    16:00 +7°C° 0 mm 3 m/S 724 mmHg 55%
    17:00 +5°C° 0 mm 3 m/S 723 mmHg 60%
    18:00 +4°C° 0 mm 3 m/S 724 mmHg 63%
    19:00 +4°C° 0 mm 3 m/S 724 mmHg 66%
    20:00 +3°C° 0 mm 3 m/S 724 mmHg 69%
    21:00 +4°C° 0 mm 2 m/S 724 mmHg 70%
    22:00 +4°C° 0 mm 2 m/S 724 mmHg 71%
    23:00 +4°C° 0 mm 2 m/S 724 mmHg 72%

    20 Januar, Samstag

    Zeit Temperatur Niederschläge Wind Luftdruck Luftfeuchtigkeit
    00:00 +4°C° 0 mm 2 m/S 724 mmHg 73%
    01:00 +4°C° 0 mm 2 m/S 724 mmHg 75%
    02:00 +4°C° 0 mm 2 m/S 724 mmHg 77%
    03:00 +4°C° 0 mm 2 m/S 724 mmHg 79%
    04:00 +4°C° 0 mm 2 m/S 723 mmHg 81%
    05:00 +4°C° 0 mm 2 m/S 723 mmHg 83%
    06:00 +3°C° 0 mm 3 m/S 723 mmHg 85%
    07:00 +4°C° 0 mm 3 m/S 723 mmHg 87%
    08:00 +4°C° 0 mm 3 m/S 723 mmHg 88%
    09:00 +6°C° 0 mm 4 m/S 723 mmHg 85%
    10:00 +7°C° 0 mm 4 m/S 723 mmHg 82%
    11:00 +9°C° 0 mm 5 m/S 723 mmHg 79%
    12:00 +9°C° 0 mm 5 m/S 722 mmHg 77%
    13:00 +10°C° 0 mm 6 m/S 722 mmHg 75%
    14:00 +10°C° 0 mm 6 m/S 721 mmHg 73%
    15:00 +10°C° 0,1 mm 6 m/S 721 mmHg 77%
    16:00 +9°C° 0,1 mm 6 m/S 721 mmHg 80%
    17:00 +8°C° 0,1 mm 6 m/S 721 mmHg 84%
    18:00 +8°C° 0,1 mm 6 m/S 721 mmHg 84%
    19:00 +8°C° 0,1 mm 6 m/S 721 mmHg 85%
    20:00 +8°C° 0,1 mm 7 m/S 721 mmHg 85%
    21:00 +8°C° 0,1 mm 7 m/S 720 mmHg 85%
    22:00 +8°C° 0,1 mm 7 m/S 720 mmHg 85%
    23:00 +8°C° 0,1 mm 7 m/S 720 mmHg 85%

    21 Januar, Sonntag

    Zeit Temperatur Niederschläge Wind Luftdruck Luftfeuchtigkeit
    00:00 +7°C° 0,2 mm 8 m/S 719 mmHg 83%
    01:00 +7°C° 0,2 mm 9 m/S 718 mmHg 82%
    02:00 +8°C° 0,2 mm 10 m/S 718 mmHg 80%
    03:00 +8°C° 1 mm 10 m/S 717 mmHg 80%
    04:00 +8°C° 1 mm 10 m/S 716 mmHg 81%
    05:00 +8°C° 1 mm 10 m/S 716 mmHg 81%
    06:00 +8°C° 1,8 mm 11 m/S 715 mmHg 81%
    07:00 +8°C° 1,8 mm 11 m/S 714 mmHg 81%
    08:00 +8°C° 1,8 mm 12 m/S 714 mmHg 82%
    09:00 +8°C° 1,9 mm 12 m/S 714 mmHg 81%
    10:00 +9°C° 1,9 mm 13 m/S 713 mmHg 80%
    11:00 +9°C° 1,9 mm 13 m/S 713 mmHg 78%
    12:00 +9°C° 2,3 mm 13 m/S 712 mmHg 80%
    13:00 +9°C° 2,3 mm 12 m/S 712 mmHg 81%
    14:00 +8°C° 2,3 mm 11 m/S 711 mmHg 82%
    15:00 +8°C° 2,3 mm 10 m/S 711 mmHg 83%
    16:00 +8°C° 2,3 mm 9 m/S 711 mmHg 84%
    17:00 +7°C° 2,3 mm 8 m/S 710 mmHg 86%
    18:00 +8°C° 1,8 mm 7 m/S 710 mmHg 87%
    19:00 +8°C° 1,8 mm 6 m/S 709 mmHg 88%
    20:00 +8°C° 1,8 mm 5 m/S 709 mmHg 89%
    21:00 +8°C° 0,8 mm 5 m/S 709 mmHg 89%
    22:00 +7°C° 0,8 mm 5 m/S 708 mmHg 89%
    23:00 +7°C° 0,8 mm 5 m/S 708 mmHg 89%
    Mehr zeigen